Overview Statistics Trail Chart Weather Telemetry Raw packets
 

This is the latest recevied weather packets stored in our database for station/object K6GMW. If no packets are shown the sender has not sent any weather packets the latest 10 day(s).

<< 63 64 65 66 67 68 69 >>
Time Temp. Humidity Pressure Rain* Wind** Luminosity Snow
1788185972 29.44° C 65% 1019.1 hPa 0 mm - 295 W/m² -
1788185666 28.89° C 66% 1019.1 hPa 0 mm - 247 W/m² -
1788185361 28.89° C 66% 1019.1 hPa 0 mm - 326 W/m² -
1788185056 28.89° C 66% 1019.3 hPa 0 mm - 217 W/m² -
1788184755 28.89° C 66% 1019.3 hPa 0 mm - 363 W/m² -
1788184455 28.33° C 68% 1019.2 hPa 0 mm - 320 W/m² -
1788184154 28.33° C 68% 1019.1 hPa 0 mm - 298 W/m² -
1788183851 27.78° C 70% 1019.1 hPa 0 mm - 269 W/m² -
1788183550 27.22° C 71% 1019.1 hPa 0 mm - 177 W/m² -
1788183245 26.67° C 71% 1018.9 hPa 0 mm - 122 W/m² -
1788182940 26.67° C 72% 1018.9 hPa 0 mm - 117 W/m² -
1788182636 26.67° C 72% 1018.8 hPa 0 mm - 109 W/m² -
1788182335 26.11° C 74% 1018.8 hPa 0 mm - 99 W/m² -
1788182031 25.56° C 75% 1018.8 hPa 0 mm - 94 W/m² -
1788181726 25.56° C 76% 1018.4 hPa 0 mm - 88 W/m² -
1788181422 25.56° C 76% 1018.4 hPa 0 mm - 80 W/m² -
1788181121 25° C 77% 1018.4 hPa 0 mm - 75 W/m² -
1788180816 25° C 78% 1018.5 hPa 0 mm - 71 W/m² -
1788180511 24.44° C 79% 1018.4 hPa 0 mm - 73 W/m² -
1788180208 24.44° C 80% 1018.1 hPa 0 mm - 58 W/m² -
1788179907 24.44° C 79% 1018 hPa 0 mm - 51 W/m² -
1788179606 23.89° C 79% 1017.8 hPa 0 mm - 45 W/m² -
1788179301 23.89° C 80% 1017.8 hPa 0 mm - 38 W/m² -
1788178996 23.33° C 82% 1018 hPa 0 mm - 33 W/m² -
1788178696 22.78° C 83% 1017.9 hPa 0 mm - 27 W/m² -

* Rain latest hour (hover to see other rain measurements)
** Current wind speed in m/s (hover to see current wind gust speed)